Tracking 25193 objects as of 18-Jan-2022
HD Live streaming from Space Station
objects crossing your sky now

JILIN-01 GAOFEN 3J

Track JILIN-01 GAOFEN 3J now!
10-day predictions


NORAD ID: 46462
Int'l Code: 2020-065J
Perigee: 532.3 km
Apogee: 552.6 km
Inclination: 97.5 °
Period: 95.3 minutes
Semi major axis: 6913 km
RCS: Unknown
Launch date: September 15, 2020
Source: People's Republic of China (PRC)
Launch site: Yellow Sea Launch Area, China (YSLA)
aabbcc
Your satellite tracking list
Your tracking list is empty




NASA's NSSDC Master Catalog

Two Line Element Set (TLE):
1 46462U 20065J   22018.21617935  .00002483  00000-0  15505-3 0  9998
2 46462  97.4711  74.5856 0014692  52.3178  33.0823 15.10300555 73965
Source of the keplerian elements: AFSPC